Dewpoint
56 58 60 58 57 58 59 59 60 60 58 59 57 55 54 53 54 53 52 52 52 53 53 55 56 58 54 49 48 50 51 53 52 54 54 53 49 46 42 43 44 44 43 46 47 47 46
54 54 57 58 60 59 58 58 59 60 59 59 58 56 55 54 54 54 53 53 52 53 53 54 55 56 50 41 46 45 50 47 49 51 51 52 50 48 45 43 42 43 44 44 45 44 45
49 50 51 55 58 60 59 59 59 59 59 58 58 58 57 55 54 54 54 54 55 54 53 53 53 52 49 43 45 45 45 45 45 46 50 51 51 49 48 44 44 43 42 42 42 45 43
50 50 49 50 54 57 59 58 59 59 59 59 58 58 57 56 55 55 54 55 54 55 54 54 54 51 43 47 47 45 45 44 42 42 43 42 47 49 46 46 43 42 42 39 41 43 45
48 49 49 49 50 53 56 59 58 59 59 59 59 58 58 57 56 56 56 55 55 54 54 54 50 48 41 48 46 45 45 43 40 40 41 40 42 42 41 42 39 40 35 36 38 43 43
46 46 47 49 49 50 53 56 58 58 58 58 58 58 58 57 56 57 56 54 53 54 52 52 50 45 44 41 43 44 44 43 39 40 38 42 41 37 39 39 32 33 35 35 35 41 43
46 45 45 48 50 50 51 53 55 58 57 57 57 57 57 57 56 56 53 49 43 42 48 41 40 40 37 43 44 44 43 41 41 38 35 37 37 33 34 37 37 37 36 33 36 38 39
44 44 47 46 47 49 50 51 53 56 57 56 56 57 57 57 56 56 50 44 42 42 39 44 43 42 42 44 40 42 42 39 39 36 36 35 33 34 36 36 36 36 34 34 35 36 37
42 41 45 47 46 47 49 50 52 55 57 57 56 56 57 57 56 54 48 46 48 46 39 41 43 42 41 42 39 41 40 39 36 34 33 32 31 32 34 35 34 34 33 33 34 35 36
42 42 40 46 45 46 48 49 51 54 57 56 55 57 57 56 51 49 48 49 48 48 34 33 38 42 44 43 40 42 41 39 37 34 34 33 35 33 32 33 33 31 34 35 34 34 31
42 43 40 44 45 47 48 49 50 52 54 56 55 56 56 52 46 46 46 50 49 46 8 32 38 42 43 40 40 40 42 39 37 35 35 31 33 33 31 31 33 31 33 31 33 33 33
42 41 41 44 44 47 47 48 49 51 53 54 56 56 55 50 49 48 50 49 46 27 14 34 39 38 39 40 39 39 40 41 41 36 36 32 35 34 32 32 31 35 33 32 33 34 28
41 41 41 42 44 47 47 48 50 50 51 54 53 56 52 49 46 51 49 45 30 20 30 33 35 37 36 36 37 37 38 38 35 31 31 35 35 36 38 34 34 32 30 27 26 24 24
41 40 40 40 41 46 47 47 50 50 51 52 52 55 51 47 52 50 47 36 22 25 30 36 35 36 33 33 37 35 36 34 38 36 33 29 26 35 35 33 32 31 30 26 17 21 23
42 41 40 40 41 44 47 47 50 49 50 51 52 53 49 50 51 48 41 30 24 29 34 34 35 33 34 36 34 37 36 33 31 37 30 29 27 34 34 34 33 31 28 30 29 29 28
42 41 39 41 41 44 46 47 49 49 49 51 49 48 47 51 50 46 37 28 31 36 39 37 33 35 30 32 32 33 33 32 34 35 34 29 24 32 34 36 34 31 32 28 29 21 22
41 41 40 39 40 43 46 47 49 50 50 50 49 43 48 51 49 42 33 31 34 39 39 37 37 36 33 28 32 31 30 32 34 32 35 33 31 31 34 33 30 32 30 31 27 28 27
41 40 41 39 40 43 45 48 48 50 49 49 47 38 50 51 40 39 36 36 37 38 40 39 39 38 35 31 32 30 30 28 33 32 32 33 35 28 29 33 36 31 29 29 26 25 31
42 40 40 38 42 44 45 47 47 50 52 50 44 44 50 48 35 35 38 36 37 38 39 39 39 39 37 32 29 30 30 31 33 33 32 36 34 27 29 33 34 35 31 33 33 34 31
42 41 40 39 41 43 45 46 48 48 50 51 44 39 44 45 43 37 35 35 36 40 38 39 40 40 38 35 31 30 31 32 34 31 40 38 35 32 26 33 35 33 33 33 33 31 30
42 41 40 38 39 42 45 46 48 48 48 50 46 41 42 36 39 38 37 38 36 36 40 41 38 39 38 34 31 31 31 29 35 39 40 37 32 33 34 35 36 35 35 35 37 35 30
42 41 40 38 39 40 44 46 47 48 49 49 44 42 42 38 39 40 38 38 37 38 40 39 38 39 38 36 30 28 30 32 30 37 37 38 32 34 32 36 35 35 37 37 37 36 36
41 41 40 38 38 41 44 46 47 47 49 43 48 46 42 39 38 38 38 38 38 39 40 40 40 39 39 39 38 40 40 36 34 36 33 34 33 33 33 38 37 35 36 37 35 36 35
40 40 40 39 38 41 43 45 47 48 48 47 48 45 43 39 39 38 39 39 39 39 37 41 41 40 40 45 45 45 41 41 35 32 33 33 33 34 34 37 26 28 38 37 38 39 40
40 40 40 39 38 41 43 45 47 47 48 48 49 45 41 39 39 38 39 38 37 40 40 41 42 43 43 43 41 37 37 37 34 34 32 33 34 32 30 28 29 27 28 35 35 35 34
40 40 40 40 38 40 42 44 47 48 49 49 49 48 45 41 40 40 38 38 37 35 38 42 44 44 46 43 40 35 30 31 31 34 36 36 35 35 30 25 25 27 29 30 31 29 30
40 40 39 38 38 40 42 44 46 48 49 49 49 50 47 42 42 41 38 37 40 38 38 40 41 42 45 41 37 35 33 34 30 30 32 34 35 30 30 30 30 32 31 31 27 27 31
40 40 39 38 39 39 40 43 45 47 48 49 49 50 48 43 43 41 40 40 41 41 38 41 42 42 42 39 38 37 33 34 33 32 33 33 33 32 32 29 26 34 30 24 28 34 35
39 40 40 38 39 40 40 43 44 45 48 49 47 50 50 46 44 46 44 43 42 44 43 43 42 42 42 40 39 40 33 34 35 30 34 33 35 35 33 32 35 35 35 37 34 34 35
Lifted_Index
3 2 1 1 2 2 2 2 1 2 2 2 3 5 6 7 7 8 8 8 8 8 8 8 8 8 8 8 9 9 7 6 5 4 3 3 4 5 5 5 4 4 4 3 3 2 2
4 3 2 2 1 2 2 2 2 2 2 2 3 4 6 6 7 7 8 8 8 8 8 8 8 8 8 8 9 9 8 7 6 5 4 4 4 5 5 5 5 5 4 4 3 2 2
6 6 5 3 2 2 2 2 2 2 2 2 3 4 5 6 6 7 7 7 7 8 8 8 8 8 8 9 10 10 9 8 7 6 5 5 4 4 5 5 5 5 5 4 4 3 2
8 8 7 6 4 3 2 2 2 2 2 2 3 3 4 5 6 6 6 6 7 7 8 8 8 8 8 9 10 10 9 8 7 7 6 5 5 5 5 5 5 5 5 5 4 3 2
9 9 9 8 7 5 4 2 2 2 2 2 2 3 4 5 6 6 6 6 6 7 7 8 8 8 8 8 9 9 9 8 8 7 7 6 6 6 5 5 5 5 5 5 4 3 2
10 10 10 9 9 7 6 4 3 2 2 2 2 3 4 4 5 6 6 7 7 7 7 8 8 8 8 8 8 9 9 8 8 7 7 6 6 6 6 5 5 5 5 5 5 3 3
12 12 11 10 10 9 8 6 4 3 3 3 3 3 3 4 5 6 7 8 8 8 8 8 8 8 8 8 8 8 8 8 8 8 7 7 7 7 7 6 5 5 6 6 5 4 3
13 13 12 12 11 10 9 8 6 4 3 3 3 3 3 4 5 6 7 8 8 8 8 8 8 8 8 8 8 8 8 8 8 7 8 8 7 7 7 7 6 7 7 6 6 4 4
14 14 13 12 11 11 10 9 7 5 4 3 3 3 3 4 5 6 7 8 8 8 8 8 8 8 8 8 8 8 8 8 7 7 7 8 8 8 7 7 7 7 7 6 5 4 4
14 14 13 12 11 10 9 8 7 5 3 3 3 3 4 5 6 6 7 7 8 7 6 6 7 7 7 7 7 7 7 7 7 6 7 7 7 7 7 6 6 6 5 4 4 3 3
12 12 11 10 9 8 7 7 6 4 3 2 2 2 4 5 6 6 7 7 7 6 4 5 7 7 7 7 7 7 6 6 6 5 5 6 6 6 5 5 4 4 3 3 3 3 3
11 10 9 8 7 6 6 6 5 4 3 2 1 2 3 4 5 6 7 7 6 5 4 5 6 6 6 6 6 6 6 5 4 4 4 4 4 4 4 3 3 3 2 2 2 2 2
8 8 8 7 6 5 4 4 4 4 3 3 2 1 2 4 5 6 6 6 5 4 4 5 6 6 5 5 5 5 5 4 3 3 2 2 2 2 2 2 2 2 1 1 1 1 1
7 7 7 6 5 4 3 3 3 4 4 4 3 1 1 3 4 5 6 5 4 4 5 6 6 5 5 4 4 4 4 3 3 2 1 1 1 1 1 1 1 1 1 1 0 0 1
5 6 6 5 4 3 3 3 3 4 5 4 3 2 2 3 4 5 5 5 4 4 5 5 5 4 4 4 4 4 3 2 2 2 1 1 1 1 1 0 0 0 1 1 0 0 0
5 5 5 5 3 2 2 3 4 4 5 4 4 2 2 3 4 4 5 4 4 4 5 5 4 4 3 4 4 3 2 2 2 1 1 1 1 1 0 0 -0 0 0 1 1 0 0
5 5 5 4 3 3 3 3 4 4 5 4 3 2 3 3 4 4 4 4 4 4 5 5 4 3 3 4 4 3 2 2 2 2 2 2 1 1 1 0 -0 -0 0 1 1 1 1
5 5 5 5 4 4 4 4 4 4 5 4 3 2 3 3 3 3 3 3 4 5 5 5 4 4 4 4 4 3 3 3 3 3 2 2 2 1 1 1 0 0 0 1 1 1 1
5 6 6 6 5 5 5 5 5 5 4 3 3 2 2 3 3 3 3 3 4 5 5 5 4 4 4 4 3 3 3 4 3 3 2 2 2 2 1 1 1 1 1 1 1 2 2
6 6 7 7 7 6 6 6 6 6 5 3 2 2 2 3 3 2 2 3 4 4 5 4 4 4 4 4 3 3 3 3 3 3 3 3 3 3 2 1 1 1 1 1 1 2 3
6 7 8 8 8 8 7 7 6 6 5 3 2 2 2 2 2 2 3 3 3 4 4 3 3 3 4 4 4 4 4 4 4 3 3 3 3 3 2 1 1 1 1 1 2 2 2
7 7 8 9 9 9 8 7 7 7 5 3 2 1 2 2 2 2 3 3 3 4 4 3 3 3 3 4 4 4 4 4 4 4 4 4 4 3 2 1 1 1 1 1 1 2 2
8 8 9 10 10 9 8 8 7 7 6 4 2 1 1 1 1 2 2 3 3 4 3 3 3 3 3 4 4 4 4 4 4 4 4 4 4 3 1 0 1 1 1 1 1 1 1
9 9 9 10 10 9 9 8 7 7 6 5 2 1 1 1 2 2 2 3 3 4 4 3 3 3 3 3 4 4 4 4 4 4 4 4 4 3 1 1 1 1 1 1 1 1 1
9 9 9 10 10 10 9 8 7 7 6 5 3 1 1 1 2 2 2 3 3 4 4 4 3 3 3 3 3 3 4 4 4 4 4 4 4 2 1 1 1 1 1 1 1 0 0
9 10 10 10 10 10 9 8 8 7 6 4 2 2 2 1 2 2 3 3 3 4 4 4 4 4 3 3 2 3 3 4 4 4 4 4 3 3 2 1 1 1 1 1 1 1 1
9 10 10 11 11 10 10 9 8 7 6 4 2 1 1 2 2 3 3 3 4 4 4 4 4 4 3 2 2 2 3 3 4 4 4 4 3 3 2 2 1 2 2 1 1 1 1
9 10 11 11 11 11 10 9 8 7 6 4 2 1 1 2 2 3 3 4 4 4 4 4 4 3 2 2 2 2 2 3 3 3 3 3 3 3 2 2 2 2 2 2 2 2 2
9 10 10 11 11 11 10 9 8 8 7 4 2 1 1 2 2 3 3 3 4 4 4 4 4 3 2 2 2 2 2 2 2 2 3 3 3 2 2 2 2 2 2 2 3 3 2